Regional Weather Roundup
Issued by NWS

Home | Current Version | Previous Version | Graphics & Text | Print | Product List | Glossary On
Versions: 1 2 3 4 5 6 7 8 9 10 11 12 13 14 15 16 17 18 19 20 21 22 23 24 25 26 27 28 29 30 31 32 33 34 35 36 37 38 39 40 41 42 43 44 45 46 47 48 49 50
000
ASUS45 KBOI 301310
RWRID
WEATHER ROUNDUP FOR IDAHO
NATIONAL WEATHER SERVICE BOISE ID
600 AM MST FRI JAN 30 2015

NOTE: "FAIR" INDICATES FEW OR NO CLOUDS BELOW 12000 FEET
WITH NO SIGNIFICANT WEATHER AND/OR OBSTRUCTIONS TO VISIBILITY

IDZ012-014-301400-
SOUTHWEST IDAHO


CITY           SKY/WX    TMP DP  RH WIND       PRES   REMARKS
BOISE          CLEAR     29  26  89 CALM      30.28F
CALDWELL       CLOUDY    34  25  69 NW5       30.31S WCI  30
MOUNTAIN HOME  PTCLDY    31  30  94 NW5       30.26S WCI  27
$$

IDZ016-017-301400-
SOUTHCENTRAL IDAHO


CITY           SKY/WX    TMP DP  RH WIND       PRES   REMARKS
BURLEY         CLOUDY    31  29  92 CALM      30.22F
JEROME         CLOUDY    33  29  85 CALM      30.23F
TWIN FALLS     CLOUDY    34  30  85 CALM      30.22F
$$

IDZ019>023-301400-
SOUTHEAST IDAHO


CITY           SKY/WX    TMP DP  RH WIND       PRES   REMARKS
IDAHO FALLS    MOCLDY    28  24  85 N9        30.23F WCI  19
POCATELLO      CLEAR     29  28  96 NE3       30.23F
REXBURG        MOCLDY    23  20  88 NE6       30.24F WCI  16
$$

IDZ006-010-011-018-031-032-301400-
CENTRAL IDAHO MOUNTAINS


CITY           SKY/WX    TMP DP  RH WIND       PRES   REMARKS
MCCALL         HAZE      23  17  78 NW3       30.24F VSB 1/4
HAILEY         CLOUDY    27  19  74 NW9       30.24F WCI  17
STANLEY          N/A     10   5  80 CALM      30.29F
SALMON         CLOUDY    25  19  80 CALM      30.37S
CHALLIS        CLOUDY    26  21  81 NW7       30.32S WCI  18
$$

IDZ002-004-006-007-026-301400-
NORTHERN IDAHO


CITY           SKY/WX    TMP DP  RH WIND       PRES   REMARKS
LEWISTON       CLOUDY    37  36  96 CALM      30.38R FOG
LOWELL           N/A     30  28  92 CALM      30.42R
COEUR D`ALENE  CLOUDY    30  28  93 N14       30.35S WCI  20
MULLAN PASS    CLEAR     30  17  58 CALM      30.24S
$$



USA.gov is the U.S. government's official web portal to all federal, state and local government web resources and services.